UAL2604 KCOS-KDEN

Flight info

Callsign UAL2604
Flight time 0h 18m
Altitude 13000
Route KCOS ADANE V389 LUFSE JEFEL KDEN
Aircraft A319/M-VGDW/C

Departure

Time 2026-04-26 21:13
Airport City of Colorado Springs Municipal Airport (KCOS)

Arrival

Time 2026-04-26 21:32
Airport Denver International Airport (KDEN)
Time Latitude Longitude Altitude Speed Heading
2026-04-26 20:55 38.79974 -104.70021 6193 ft 0 kts 265°
2026-04-26 21:02 38.79975 -104.70009 6193 ft 3 kts 265°
2026-04-26 21:02 38.79977 -104.69986 6182 ft 3 kts 265°
2026-04-26 21:02 38.79977 -104.69977 6193 ft 0 kts 265°
2026-04-26 21:02 38.79975 -104.69982 6193 ft 2 kts 240°
2026-04-26 21:03 38.79963 -104.69975 6192 ft 1 kts 124°
2026-04-26 21:03 38.79954 -104.69942 6193 ft 3 kts 76°
2026-04-26 21:03 38.79962 -104.69932 6192 ft 5 kts 33°
2026-04-26 21:03 38.79972 -104.69930 6193 ft 0 kts 353°
2026-04-26 21:06 38.79980 -104.69932 6193 ft 4 kts 352°
2026-04-26 21:06 38.79991 -104.69933 6193 ft 3 kts 355°
2026-04-26 21:06 38.80076 -104.69932 6193 ft 10 kts 13°
2026-04-26 21:07 38.80082 -104.69890 6193 ft 12 kts 94°
2026-04-26 21:07 38.80078 -104.69800 6193 ft 6 kts 89°
2026-04-26 21:07 38.80079 -104.69765 6193 ft 4 kts 86°
2026-04-26 21:07 38.80096 -104.69735 6193 ft 3 kts 32°
2026-04-26 21:08 38.80188 -104.69732 6192 ft 16 kts
2026-04-26 21:08 38.80287 -104.69684 6192 ft 13 kts 68°
2026-04-26 21:08 38.80283 -104.69581 6193 ft 12 kts 95°
2026-04-26 21:08 38.80281 -104.69477 6193 ft 15 kts 91°
2026-04-26 21:09 38.80282 -104.69315 6193 ft 17 kts 90°
2026-04-26 21:09 38.80280 -104.69186 6193 ft 11 kts 94°
2026-04-26 21:09 38.80279 -104.69101 6193 ft 13 kts 88°
2026-04-26 21:09 38.80278 -104.68966 6194 ft 13 kts 91°
2026-04-26 21:10 38.80282 -104.68819 6194 ft 15 kts 75°
2026-04-26 21:10 38.80371 -104.68786 6194 ft 15 kts
2026-04-26 21:10 38.80478 -104.68787 6193 ft 17 kts
2026-04-26 21:10 38.80657 -104.68785 6193 ft 28 kts
2026-04-26 21:11 38.80839 -104.68787 6193 ft 24 kts 359°
2026-04-26 21:11 38.80986 -104.68785 6193 ft 23 kts 356°
2026-04-26 21:11 38.81208 -104.68784 6193 ft 31 kts
2026-04-26 21:11 38.81403 -104.68786 6194 ft 25 kts 359°
2026-04-26 21:12 38.81557 -104.68786 6194 ft 17 kts
2026-04-26 21:12 38.81598 -104.68646 6196 ft 19 kts 98°
2026-04-26 21:12 38.81536 -104.68578 6196 ft 9 kts 176°
2026-04-26 21:12 38.81332 -104.68574 6195 ft 55 kts 181°
2026-04-26 21:13 38.80777 -104.68578 6192 ft 104 kts 180°
2026-04-26 21:13 38.79900 -104.68574 6196 ft 147 kts 180°
2026-04-26 21:13 38.78852 -104.68594 6801 ft 143 kts 182°
2026-04-26 21:13 38.77877 -104.68440 7233 ft 158 kts 153°
2026-04-26 21:14 38.76835 -104.67341 6469 ft 237 kts 130°
2026-04-26 21:14 38.76054 -104.65365 7315 ft 251 kts 108°
2026-04-26 21:14 38.75767 -104.63079 7974 ft 271 kts 101°
2026-04-26 21:14 38.75628 -104.60578 8556 ft 289 kts 93°
2026-04-26 21:15 38.76052 -104.58080 9556 ft 291 kts 65°
2026-04-26 21:15 38.77292 -104.56028 10376 ft 297 kts 43°
2026-04-26 21:15 38.78337 -104.54817 10600 ft 311 kts 41°
2026-04-26 21:15 38.80589 -104.52320 11239 ft 332 kts 41°
2026-04-26 21:16 38.81756 -104.50999 11541 ft 345 kts 41°
2026-04-26 21:16 38.83584 -104.48957 11967 ft 363 kts 40°
2026-04-26 21:16 38.85537 -104.46797 12500 ft 376 kts 39°
2026-04-26 21:16 38.87573 -104.44556 12924 ft 392 kts 39°
2026-04-26 21:17 38.89612 -104.42292 12899 ft 381 kts 39°
2026-04-26 21:17 38.91722 -104.40327 12980 ft 376 kts 22°
2026-04-26 21:17 38.94256 -104.39391 12853 ft 376 kts
2026-04-26 21:17 38.96815 -104.39081 12761 ft 369 kts 359°
2026-04-26 21:18 38.99395 -104.38835 12717 ft 371 kts 360°
2026-04-26 21:18 39.01972 -104.38563 12807 ft 368 kts
2026-04-26 21:18 39.04512 -104.38289 12978 ft 358 kts 360°
2026-04-26 21:18 39.06911 -104.38053 13033 ft 334 kts 359°
2026-04-26 21:19 39.09123 -104.37842 13011 ft 314 kts 359°
2026-04-26 21:19 39.11175 -104.37634 12945 ft 298 kts 358°
2026-04-26 21:19 39.13128 -104.37435 12816 ft 284 kts 358°
2026-04-26 21:19 39.15057 -104.37311 12699 ft 277 kts 352°
2026-04-26 21:20 39.17020 -104.37425 12803 ft 291 kts 350°
2026-04-26 21:20 39.19076 -104.37594 12999 ft 301 kts 356°
2026-04-26 21:20 39.21119 -104.37005 13181 ft 301 kts 21°
2026-04-26 21:20 39.22926 -104.35609 12641 ft 303 kts 24°
2026-04-26 21:21 39.24843 -104.34681 12124 ft 294 kts
2026-04-26 21:21 39.26864 -104.34825 11619 ft 283 kts 340°
2026-04-26 21:21 39.28763 -104.35557 11026 ft 286 kts 335°
2026-04-26 21:21 39.30664 -104.36360 10437 ft 291 kts 337°
2026-04-26 21:22 39.32551 -104.37103 10067 ft 288 kts 338°
2026-04-26 21:22 39.34499 -104.37915 9668 ft 283 kts 331°
2026-04-26 21:22 39.36080 -104.39168 9475 ft 261 kts 310°
2026-04-26 21:23 39.38582 -104.42426 8866 ft 250 kts 309°
2026-04-26 21:23 39.39814 -104.44015 8814 ft 262 kts 310°
2026-04-26 21:23 39.41149 -104.45714 8868 ft 257 kts 310°
2026-04-26 21:23 39.42372 -104.47260 8850 ft 243 kts 311°
2026-04-26 21:24 39.43623 -104.48844 8851 ft 253 kts 311°
2026-04-26 21:24 39.44887 -104.50459 8951 ft 256 kts 311°
2026-04-26 21:24 39.46148 -104.52056 9090 ft 255 kts 311°
2026-04-26 21:24 39.47375 -104.53607 9083 ft 240 kts 311°
2026-04-26 21:25 39.48615 -104.55195 8921 ft 258 kts 311°
2026-04-26 21:25 39.49908 -104.56857 8870 ft 259 kts 311°
2026-04-26 21:25 39.51173 -104.58478 8835 ft 266 kts 311°
2026-04-26 21:25 39.52521 -104.60172 8865 ft 278 kts 317°
2026-04-26 21:26 39.54177 -104.61543 8887 ft 273 kts 331°
2026-04-26 21:26 39.55902 -104.62403 8829 ft 259 kts 342°
2026-04-26 21:26 39.57641 -104.62793 8564 ft 253 kts 352°
2026-04-26 21:26 39.59404 -104.62847 8113 ft 254 kts 357°
2026-04-26 21:27 39.61145 -104.62843 7878 ft 243 kts 357°
2026-04-26 21:27 39.62747 -104.62896 7906 ft 219 kts 354°
2026-04-26 21:27 39.64216 -104.63004 7884 ft 206 kts 353°
2026-04-26 21:27 39.65613 -104.63157 7799 ft 197 kts 351°
2026-04-26 21:28 39.66965 -104.63319 7703 ft 193 kts 353°
2026-04-26 21:28 39.68334 -104.63455 7652 ft 202 kts 353°
2026-04-26 21:28 39.69760 -104.63602 7670 ft 210 kts 351°
2026-04-26 21:28 39.71191 -104.63852 7627 ft 197 kts 351°
2026-04-26 21:29 39.72484 -104.63970 7486 ft 187 kts 354°
2026-04-26 21:29 39.73761 -104.64030 7358 ft 187 kts 355°
2026-04-26 21:29 39.74999 -104.64073 7233 ft 184 kts 356°
2026-04-26 21:29 39.76290 -104.64123 7087 ft 175 kts 356°
2026-04-26 21:30 39.77519 -104.64168 6917 ft 183 kts 356°
2026-04-26 21:30 39.78818 -104.64145 6740 ft 187 kts
2026-04-26 21:30 39.80035 -104.64128 6532 ft 164 kts 356°
2026-04-26 21:30 39.81128 -104.64183 6138 ft 152 kts 357°
2026-04-26 21:31 39.82178 -104.64164 5736 ft 152 kts
2026-04-26 21:31 39.83052 -104.64168 5500 ft 151 kts
2026-04-26 21:31 39.83809 -104.64167 5372 ft 139 kts
2026-04-26 21:31 39.84630 -104.64150 5361 ft 116 kts
2026-04-26 21:32 39.85298 -104.64144 5350 ft 56 kts 357°
2026-04-26 21:32 39.85580 -104.64204 5352 ft 33 kts 335°
2026-04-26 21:32 39.85663 -104.64270 5351 ft 0 kts 326°
2026-04-26 21:32 39.85663 -104.64271 5351 ft 1 kts 326°
2026-04-26 21:33 39.85666 -104.64275 5351 ft 5 kts 313°
2026-04-26 21:33 39.85665 -104.64430 5350 ft 19 kts 271°
2026-04-26 21:33 39.85663 -104.64601 5347 ft 30 kts 273°
2026-04-26 21:33 39.85670 -104.64994 5359 ft 44 kts 269°
2026-04-26 21:34 39.85670 -104.65330 5382 ft 30 kts 269°
2026-04-26 21:34 39.85673 -104.65550 5394 ft 19 kts 268°
2026-04-26 21:34 39.85674 -104.65728 5392 ft 19 kts 270°
2026-04-26 21:34 39.85677 -104.65898 5395 ft 18 kts 271°
2026-04-26 21:35 39.85676 -104.66032 5399 ft 12 kts 269°
2026-04-26 21:35 39.85675 -104.66123 5399 ft 8 kts 270°
2026-04-26 21:35 39.85677 -104.66192 5389 ft 12 kts 272°
2026-04-26 21:35 39.85683 -104.66350 5395 ft 22 kts 273°
2026-04-26 21:36 39.85678 -104.66470 5386 ft 4 kts 274°
2026-04-26 21:36 39.85676 -104.66507 5386 ft 8 kts 262°
2026-04-26 21:36 39.85662 -104.66572 5392 ft 5 kts 253°
2026-04-26 21:36 39.85658 -104.66666 5390 ft 12 kts 270°
2026-04-26 21:37 39.85658 -104.66759 5388 ft 9 kts 270°
2026-04-26 21:37 39.85657 -104.66830 5387 ft 10 kts 267°
2026-04-26 21:37 39.85662 -104.67059 5382 ft 32 kts 270°
2026-04-26 21:37 39.85642 -104.67331 5381 ft 25 kts 283°
2026-04-26 21:38 39.85670 -104.67529 5380 ft 20 kts 274°
2026-04-26 21:38 39.85706 -104.67633 5376 ft 10 kts
2026-04-26 21:38 39.85770 -104.67628 5377 ft 10 kts
2026-04-26 21:38 39.85807 -104.67627 5377 ft 0 kts